CFG47T EDDN-EDDM

Flight info

Callsign CFG47T
Flight time 0h 27m
Altitude 14000
Route BOLSI1G BOLSI Y167 AKANU/N0370F130 L603 RENLO T466 ROKIL ROKIL1B
Aircraft A339/H-SADE1E2E3GHIJ3J5M1P2RWXY/LB2D1

Departure

Time 2026-05-05 09:22
Airport Nuremberg Airport (EDDN)

Arrival

Time 2026-05-05 09:49
Airport Munich Airport (EDDM)
Time Latitude Longitude Altitude Speed Heading
2026-05-05 09:12 49.49532 11.07661 1032 ft 0 kts 188°
2026-05-05 09:16 49.49552 11.07665 1030 ft 3 kts 188°
2026-05-05 09:17 49.49568 11.07670 1032 ft 2 kts 179°
2026-05-05 09:17 49.49582 11.07670 1028 ft 2 kts 150°
2026-05-05 09:17 49.49595 11.07660 1031 ft 1 kts 120°
2026-05-05 09:17 49.49599 11.07654 1031 ft 0 kts 103°
2026-05-05 09:18 49.49595 11.07687 1031 ft 10 kts 100°
2026-05-05 09:18 49.49580 11.07836 1033 ft 17 kts 98°
2026-05-05 09:19 49.49558 11.08059 1032 ft 24 kts 99°
2026-05-05 09:19 49.49537 11.08282 1034 ft 16 kts 93°
2026-05-05 09:19 49.49554 11.08332 1035 ft 5 kts 44°
2026-05-05 09:19 49.49601 11.08374 1039 ft 11 kts 43°
2026-05-05 09:20 49.49607 11.08525 1041 ft 20 kts 98°
2026-05-05 09:20 49.49583 11.08779 1043 ft 25 kts 101°
2026-05-05 09:20 49.49556 11.09038 1046 ft 25 kts 98°
2026-05-05 09:20 49.49533 11.09272 1050 ft 16 kts 98°
2026-05-05 09:21 49.49569 11.09436 1054 ft 19 kts 56°
2026-05-05 09:21 49.49660 11.09559 1058 ft 16 kts
2026-05-05 09:21 49.49710 11.09424 1056 ft 2 kts 278°
2026-05-05 09:22 49.49736 11.09159 1052 ft 72 kts 279°
2026-05-05 09:22 49.49861 11.07895 1035 ft 161 kts 278°
2026-05-05 09:22 49.50042 11.05945 1339 ft 200 kts 279°
2026-05-05 09:22 49.50215 11.03890 2550 ft 189 kts 279°
2026-05-05 09:23 49.50404 11.01878 3493 ft 197 kts 279°
2026-05-05 09:23 49.50627 10.99682 4161 ft 217 kts 278°
2026-05-05 09:23 49.50874 10.97295 4725 ft 237 kts 278°
2026-05-05 09:23 49.51131 10.94676 5239 ft 257 kts 275°
2026-05-05 09:24 49.51005 10.91863 5783 ft 270 kts 255°
2026-05-05 09:24 49.50291 10.89198 6609 ft 271 kts 242°
2026-05-05 09:24 49.49443 10.86598 7391 ft 274 kts 242°
2026-05-05 09:24 49.48600 10.83927 8249 ft 276 kts 242°
2026-05-05 09:25 49.47772 10.81266 9111 ft 279 kts 242°
2026-05-05 09:25 49.46845 10.78669 9916 ft 280 kts 230°
2026-05-05 09:25 49.45352 10.76775 10732 ft 279 kts 206°
2026-05-05 09:25 49.43492 10.76028 11487 ft 281 kts 183°
2026-05-05 09:26 49.41472 10.76038 11937 ft 298 kts 180°
2026-05-05 09:26 49.39321 10.76085 12138 ft 320 kts 180°
2026-05-05 09:26 49.37047 10.76105 12503 ft 334 kts 180°
2026-05-05 09:26 49.34700 10.76091 13213 ft 338 kts 181°
2026-05-05 09:27 49.32349 10.76057 13701 ft 341 kts 181°
2026-05-05 09:27 49.29987 10.76018 13837 ft 343 kts 181°
2026-05-05 09:27 49.27569 10.76176 13864 ft 355 kts 171°
2026-05-05 09:27 49.25200 10.77288 13865 ft 356 kts 160°
2026-05-05 09:28 49.22913 10.78808 13873 ft 357 kts 157°
2026-05-05 09:28 49.20662 10.80364 13867 ft 357 kts 158°
2026-05-05 09:28 49.18375 10.81882 13872 ft 356 kts 159°
2026-05-05 09:28 49.16096 10.83316 13866 ft 356 kts 160°
2026-05-05 09:29 49.13803 10.84715 13865 ft 356 kts 160°
2026-05-05 09:29 49.11500 10.86092 13870 ft 355 kts 161°
2026-05-05 09:29 49.09204 10.87454 13872 ft 356 kts 161°
2026-05-05 09:29 49.06903 10.88817 13872 ft 355 kts 161°
2026-05-05 09:30 49.04596 10.90183 13861 ft 355 kts 161°
2026-05-05 09:30 49.02298 10.91546 13859 ft 356 kts 161°
2026-05-05 09:30 48.99976 10.92926 13856 ft 355 kts 161°
2026-05-05 09:30 48.97687 10.94282 13859 ft 356 kts 161°
2026-05-05 09:31 48.95368 10.95652 13855 ft 355 kts 161°
2026-05-05 09:31 48.93067 10.97012 13862 ft 356 kts 161°
2026-05-05 09:31 48.90769 10.98373 13852 ft 356 kts 161°
2026-05-05 09:31 48.88468 10.99746 13850 ft 357 kts 161°
2026-05-05 09:32 48.86154 11.01113 13858 ft 357 kts 161°
2026-05-05 09:32 48.83829 11.02481 13849 ft 355 kts 161°
2026-05-05 09:32 48.81536 11.03832 13851 ft 355 kts 161°
2026-05-05 09:32 48.79240 11.05182 13850 ft 355 kts 161°
2026-05-05 09:33 48.76939 11.06533 13861 ft 356 kts 161°
2026-05-05 09:33 48.74615 11.07799 13859 ft 355 kts 163°
2026-05-05 09:33 48.72250 11.08998 13854 ft 356 kts 163°
2026-05-05 09:33 48.69916 11.10162 13856 ft 355 kts 163°
2026-05-05 09:34 48.67558 11.11350 13867 ft 356 kts 163°
2026-05-05 09:34 48.66019 11.12137 13857 ft 356 kts 163°
2026-05-05 09:34 48.62892 11.13744 13870 ft 356 kts 163°
2026-05-05 09:34 48.61329 11.14545 13859 ft 356 kts 163°
2026-05-05 09:35 48.58203 11.16149 13841 ft 356 kts 163°
2026-05-05 09:35 48.54285 11.18158 13206 ft 357 kts 163°
2026-05-05 09:35 48.51340 11.20110 12895 ft 340 kts 152°
2026-05-05 09:36 48.49425 11.22126 12414 ft 332 kts 142°
2026-05-05 09:36 48.48298 11.23670 12255 ft 323 kts 139°
2026-05-05 09:36 48.46619 11.25996 12162 ft 330 kts 140°
2026-05-05 09:36 48.44922 11.28315 12062 ft 329 kts 140°
2026-05-05 09:37 48.43254 11.30618 11775 ft 324 kts 136°
2026-05-05 09:37 48.42023 11.33395 11395 ft 318 kts 114°
2026-05-05 09:37 48.41574 11.36592 11018 ft 310 kts 92°
2026-05-05 09:37 48.41798 11.39764 10672 ft 302 kts 83°
2026-05-05 09:38 48.42110 11.42878 10290 ft 293 kts 83°
2026-05-05 09:38 48.42389 11.45885 9977 ft 293 kts 83°
2026-05-05 09:38 48.42648 11.48927 9746 ft 294 kts 84°
2026-05-05 09:38 48.42896 11.51981 9475 ft 291 kts 84°
2026-05-05 09:39 48.43131 11.54967 9216 ft 289 kts 84°
2026-05-05 09:39 48.43368 11.57998 8961 ft 289 kts 84°
2026-05-05 09:39 48.43601 11.60993 8699 ft 288 kts 84°
2026-05-05 09:39 48.43833 11.63944 8444 ft 285 kts 84°
2026-05-05 09:40 48.44065 11.66930 8208 ft 286 kts 84°
2026-05-05 09:40 48.44290 11.69867 7947 ft 283 kts 84°
2026-05-05 09:40 48.44507 11.72780 7706 ft 282 kts 84°
2026-05-05 09:40 48.44721 11.75733 7453 ft 281 kts 84°
2026-05-05 09:41 48.44937 11.78650 7216 ft 281 kts 84°
2026-05-05 09:41 48.45163 11.81570 6970 ft 279 kts 84°
2026-05-05 09:41 48.45384 11.84443 6732 ft 277 kts 84°
2026-05-05 09:41 48.45609 11.87318 6470 ft 277 kts 84°
2026-05-05 09:42 48.45833 11.90184 6252 ft 277 kts 84°
2026-05-05 09:42 48.46061 11.93071 6005 ft 277 kts 84°
2026-05-05 09:42 48.46290 11.95965 5750 ft 277 kts 84°
2026-05-05 09:42 48.46507 11.98816 5463 ft 276 kts 85°
2026-05-05 09:43 48.46714 12.01688 5235 ft 270 kts 85°
2026-05-05 09:43 48.46813 12.04502 5123 ft 278 kts 96°
2026-05-05 09:43 48.46223 12.07250 5009 ft 269 kts 122°
2026-05-05 09:43 48.44937 12.09259 5002 ft 271 kts 149°
2026-05-05 09:44 48.43192 12.10225 5001 ft 265 kts 174°
2026-05-05 09:44 48.41446 12.10001 4999 ft 246 kts 194°
2026-05-05 09:44 48.39889 12.09247 4989 ft 223 kts 200°
2026-05-05 09:44 48.38494 12.08479 4962 ft 210 kts 200°
2026-05-05 09:45 48.37298 12.07331 4892 ft 202 kts 225°
2026-05-05 09:45 48.36573 12.05515 4688 ft 202 kts 250°
2026-05-05 09:45 48.36267 12.03479 4498 ft 201 kts 262°
2026-05-05 09:45 48.36104 12.01394 4217 ft 202 kts 262°
2026-05-05 09:46 48.35940 11.99282 3953 ft 201 kts 262°
2026-05-05 09:46 48.35758 11.97249 3710 ft 194 kts 263°
2026-05-05 09:46 48.35616 11.95279 3448 ft 183 kts 261°
2026-05-05 09:46 48.35472 11.93466 3220 ft 168 kts 264°
2026-05-05 09:47 48.35347 11.91788 3002 ft 153 kts 263°
2026-05-05 09:47 48.35229 11.90236 2808 ft 148 kts 264°
2026-05-05 09:47 48.35113 11.88716 2610 ft 144 kts 263°
2026-05-05 09:47 48.34996 11.87191 2424 ft 150 kts 263°
2026-05-05 09:48 48.34881 11.85697 2209 ft 140 kts 263°
2026-05-05 09:48 48.34769 11.84222 2013 ft 147 kts 263°
2026-05-05 09:48 48.34653 11.82728 1814 ft 139 kts 262°
2026-05-05 09:48 48.34541 11.81245 1628 ft 144 kts 262°
2026-05-05 09:49 48.34427 11.79804 1481 ft 139 kts 263°
2026-05-05 09:49 48.34327 11.78513 1473 ft 82 kts 263°
2026-05-05 09:49 48.34267 11.77755 1469 ft 64 kts 263°
2026-05-05 09:49 48.34248 11.77353 1471 ft 35 kts 274°
2026-05-05 09:50 48.34328 11.77012 1466 ft 30 kts 292°
2026-05-05 09:50 48.34359 11.76901 1464 ft 1 kts 293°
2026-05-05 09:50 48.34369 11.76869 1470 ft 9 kts 294°
2026-05-05 09:50 48.34418 11.76732 1464 ft 17 kts 312°
2026-05-05 09:51 48.34536 11.76696 1472 ft 18 kts 13°
2026-05-05 09:51 48.34577 11.76824 1465 ft 16 kts 82°
2026-05-05 09:51 48.34594 11.77041 1467 ft 24 kts 83°
2026-05-05 09:51 48.34614 11.77293 1467 ft 25 kts 83°
2026-05-05 09:52 48.34636 11.77551 1467 ft 25 kts 83°
2026-05-05 09:52 48.34653 11.77783 1462 ft 17 kts 84°
2026-05-05 09:52 48.34660 11.77841 1471 ft 0 kts 74°
2026-05-05 09:52 48.34666 11.77856 1471 ft 5 kts 64°
2026-05-05 09:53 48.34703 11.77885 1466 ft 8 kts 12°
2026-05-05 09:53 48.34778 11.77878 1470 ft 12 kts 354°
2026-05-05 09:53 48.34870 11.77863 1462 ft 14 kts 354°
2026-05-05 09:53 48.34978 11.77844 1463 ft 19 kts 353°
2026-05-05 09:54 48.35125 11.77818 1463 ft 22 kts 353°
2026-05-05 09:54 48.35260 11.77793 1467 ft 12 kts 353°
2026-05-05 09:54 48.35331 11.77842 1463 ft 12 kts 59°
2026-05-05 09:54 48.35348 11.77994 1465 ft 17 kts 83°
2026-05-05 09:55 48.35317 11.78156 1465 ft 17 kts 150°
2026-05-05 09:55 48.35199 11.78185 1463 ft 17 kts 173°
2026-05-05 09:55 48.35169 11.78191 1472 ft 0 kts 173°
2026-05-05 09:55 48.35152 11.78193 1469 ft 7 kts 174°
2026-05-05 09:56 48.35117 11.78232 1463 ft 7 kts 119°
2026-05-05 09:56 48.35123 11.78305 1466 ft 6 kts 79°
2026-05-05 09:56 48.35124 11.78322 1462 ft 4 kts 83°
2026-05-05 09:56 48.35126 11.78349 1464 ft 0 kts 83°